GFSMA_sfc_wetblb_174.txt.gz
Wetbulb
47.35 47.97 48.10 48.73 49.57 53.51 57.50 60.51 62.95 64.69 66.01 66.67 67.14 66.36 65.89 64.93 64.38 64.31 63.17 61.30 63.78 67.73 70.52 71.24 69.71 69.69 69.84 69.03 68.70 68.57 68.74 67.84 67.58 67.29 67.10 66.94 66.77 66.73 66.70 66.70 66.73 66.81 66.67
47.93 48.42 48.42 48.83 48.83 49.48 50.47 52.97 56.61 59.81 62.37 64.19 65.49 66.36 66.21 65.91 65.40 64.58 64.40 63.04 63.06 66.38 69.10 70.75 70.28 69.88 69.56 69.59 69.29 69.57 69.53 68.83 68.58 68.11 67.81 67.54 67.57 67.21 67.19 67.25 67.23 67.33 67.59
49.14 48.53 48.57 48.78 48.94 49.27 49.89 50.42 50.91 53.91 57.45 60.33 61.52 63.43 64.97 65.79 65.68 65.26 65.71 61.94 62.06 63.73 66.87 69.84 70.21 70.41 70.48 69.72 69.55 70.34 69.84 69.54 68.94 68.55 68.54 68.46 68.26 68.26 67.69 67.47 67.60 67.73 67.91
50.50 49.35 49.24 48.96 49.81 50.01 49.78 49.39 49.66 50.27 51.55 53.80 56.43 58.95 61.11 62.61 63.77 64.49 64.86 65.49 63.13 62.80 63.99 66.81 68.53 69.65 70.17 70.32 69.45 69.47 70.64 69.84 69.24 68.90 68.67 68.41 68.15 68.15 68.63 68.26 68.50 68.33 67.99
50.65 49.33 49.27 49.32 49.75 49.85 49.49 49.22 48.92 48.54 48.86 49.81 51.21 52.44 56.18 59.37 60.23 61.82 62.36 63.83 64.69 62.84 62.64 63.47 64.45 65.98 67.39 69.14 69.32 69.12 70.11 69.97 69.03 68.86 68.84 68.83 68.69 68.70 68.80 68.79 68.65 68.58 68.27
50.17 49.13 48.97 48.65 49.37 49.10 48.65 48.71 47.90 48.54 47.86 48.37 50.43 50.74 50.97 53.38 56.64 59.33 61.07 62.72 62.93 64.20 62.57 61.77 62.28 63.54 63.49 67.02 68.83 69.24 68.87 69.70 68.97 68.37 68.47 68.48 68.78 69.06 68.88 68.59 68.81 68.76 68.52
49.53 48.69 48.19 48.25 48.81 48.40 48.23 48.91 48.78 48.20 47.91 48.70 47.58 49.06 49.08 51.44 53.24 56.29 58.55 61.09 61.74 62.49 62.94 61.69 61.40 61.94 62.50 63.61 65.68 67.18 67.66 68.04 68.74 68.80 68.14 68.18 68.39 68.69 68.83 68.64 68.75 68.60 68.64
49.13 49.13 48.09 48.06 48.18 48.30 48.62 48.70 48.61 48.31 48.45 49.10 46.59 46.42 44.48 47.22 49.25 51.44 54.96 58.48 59.75 61.39 61.06 62.19 62.02 60.70 61.19 61.64 62.03 63.72 64.94 66.43 67.42 67.49 67.48 67.65 67.47 67.84 67.69 68.08 68.23 68.28 68.50
48.59 48.63 48.51 48.24 48.15 49.22 49.44 49.07 48.91 48.62 48.20 49.80 49.13 47.34 45.36 43.32 47.76 50.36 52.52 54.78 56.24 57.34 59.55 60.96 61.25 61.20 61.36 61.76 61.79 61.55 61.86 63.57 65.27 66.54 66.94 67.05 67.64 67.65 67.70 67.77 67.75 67.96 68.79
47.85 48.83 49.44 49.18 48.99 49.48 49.31 49.50 51.36 49.33 48.53 47.31 49.22 51.12 50.32 50.23 46.39 45.43 48.84 50.62 54.84 56.92 58.29 59.86 61.87 62.23 61.68 61.75 60.74 59.95 60.31 61.90 64.34 66.11 66.98 67.48 67.14 67.50 67.89 67.76 67.94 67.87 68.46
48.69 49.21 49.57 49.43 49.32 50.50 52.32 51.08 48.67 48.00 48.29 47.65 47.42 48.02 48.39 48.72 50.07 48.61 45.96 46.85 50.52 54.98 57.15 58.38 59.81 60.86 60.91 60.61 60.97 60.40 60.29 62.21 64.50 65.29 66.74 67.13 67.24 67.33 67.20 67.22 67.32 67.03 65.71
48.40 48.84 49.65 49.63 50.56 52.17 51.97 51.03 48.79 48.11 47.83 47.77 48.33 49.48 49.36 47.93 46.72 48.28 47.59 47.18 47.80 50.40 54.79 55.92 56.85 58.77 60.49 60.69 59.91 58.55 59.31 61.31 63.59 65.09 66.37 66.38 66.00 65.36 64.89 64.62 64.51 64.64 64.55
48.13 48.57 49.52 50.19 51.12 52.24 52.10 49.98 48.41 47.95 47.79 47.90 48.28 48.92 50.96 50.86 51.51 50.93 49.58 48.31 47.57 48.93 50.54 52.16 52.44 53.14 56.07 58.50 59.98 56.89 57.62 59.47 61.52 63.66 65.23 64.61 63.94 63.83 63.47 63.13 63.28 63.45 63.52
50.62 50.62 50.83 51.78 51.98 52.27 51.16 47.92 47.66 48.26 48.15 48.50 48.26 49.10 50.97 51.83 52.84 52.35 50.62 49.07 46.12 46.89 47.34 48.20 50.92 51.81 52.81 53.53 54.94 55.50 57.63 57.26 58.51 60.96 62.44 62.37 61.52 60.72 60.41 60.54 60.88 61.03 61.17
49.90 50.46 50.97 51.08 51.00 51.68 49.97 48.30 47.83 48.15 47.67 48.06 48.40 48.94 49.71 51.61 52.89 52.87 52.51 51.55 48.77 44.80 44.76 47.80 49.09 51.80 52.41 52.25 51.67 53.21 54.04 54.06 56.73 57.24 56.64 56.42 56.32 56.22 55.97 55.66 55.61 55.62 56.20
48.60 48.81 50.09 49.94 50.33 50.64 50.14 49.11 46.70 47.93 47.77 47.92 48.95 48.70 48.53 48.41 48.82 50.86 51.80 51.21 51.54 49.75 46.95 49.97 50.70 51.21 50.91 51.16 51.40 51.60 51.52 52.00 53.88 54.67 54.35 53.13 52.93 52.68 51.91 51.89 51.99 52.21 52.71
47.25 48.47 48.33 49.21 49.40 49.24 49.68 48.86 47.35 46.45 45.91 46.07 46.84 47.77 48.88 49.11 49.06 49.16 51.21 51.61 51.20 51.79 49.79 49.85 50.21 50.25 49.65 48.82 49.27 50.14 50.83 50.53 49.72 52.63 51.58 51.05 51.18 51.31 50.41 50.00 49.92 49.97 50.50
46.89 47.42 47.46 48.25 48.42 48.80 48.74 48.00 46.63 47.08 46.10 45.02 45.79 46.05 46.32 48.33 47.89 48.71 48.25 47.52 47.71 48.55 47.18 44.88 48.11 47.56 47.43 47.73 47.55 47.82 49.79 49.17 47.02 49.96 50.18 49.48 49.41 49.54 49.44 49.10 48.85 48.83 48.63
45.30 45.52 45.96 45.96 46.57 47.57 47.60 47.37 46.70 46.26 46.48 47.26 47.61 46.58 45.97 45.83 44.82 44.80 44.73 44.74 45.53 47.02 45.91 45.01 44.74 46.66 46.59 46.45 46.31 46.06 45.86 44.41 46.43 46.60 48.25 47.81 47.86 48.44 48.65 48.22 47.59 47.43 47.17
44.40 44.11 44.16 44.07 44.28 44.45 45.20 45.21 46.15 46.01 46.34 47.34 48.60 48.67 48.68 48.35 47.18 47.13 46.40 46.39 46.43 45.59 45.08 44.61 45.12 45.75 47.00 47.78 46.43 42.22 41.29 42.43 41.86 43.12 43.70 45.96 46.22 46.43 47.36 46.89 45.78 44.79 44.58
43.88 43.47 42.85 43.07 42.98 43.47 45.54 43.35 44.62 45.92 45.88 47.16 47.53 47.79 47.78 45.70 46.11 47.31 47.11 45.88 45.49 45.88 45.97 46.22 45.97 46.61 44.65 43.01 41.26 41.76 41.46 40.16 39.84 39.76 39.27 39.10 41.71 44.48 44.58 44.81 43.89 43.60 43.46
42.14 41.75 41.59 41.98 41.78 43.45 45.45 45.73 44.28 42.55 44.68 45.48 44.84 45.59 46.45 44.54 45.20 46.88 45.39 44.74 44.27 40.96 40.51 40.49 41.89 42.60 40.77 39.57 39.49 37.95 39.10 37.92 36.77 37.59 33.89 35.20 39.44 41.17 42.82 42.74 43.14 43.20 42.64
40.37 40.33 40.46 40.64 40.39 40.74 44.72 46.19 45.17 41.62 41.31 41.71 42.06 42.41 43.53 43.53 43.51 44.08 44.80 43.27 42.48 42.74 41.75 38.25 40.28 37.66 37.86 36.61 36.24 34.00 32.52 32.84 33.29 33.19 31.60 31.25 34.33 33.65 38.50 37.50 40.07 41.12 40.09
38.77 38.84 39.13 39.46 39.12 40.15 44.03 45.20 44.97 39.53 38.77 39.75 40.02 39.65 39.38 40.50 41.90 42.32 42.82 41.23 39.76 37.22 37.05 37.64 35.62 34.47 33.57 32.58 31.34 31.06 30.23 29.43 29.54 32.64 29.79 25.17 29.27 28.99 30.69 32.12 38.93 38.74 38.19
36.81 37.37 38.53 38.57 37.90 38.01 42.28 43.57 42.89 37.48 36.95 37.59 39.48 38.89 38.47 36.78 39.00 41.19 37.58 36.96 35.16 35.57 39.39 39.17 38.01 38.24 37.45 36.18 33.10 28.80 25.69 24.22 24.58 27.29 28.08 26.21 26.20 26.36 27.61 29.51 36.06 37.70 35.98
36.10 36.77 37.11 37.29 39.15 37.46 40.84 42.58 42.45 37.31 35.35 35.98 37.68 38.11 42.30 36.82 38.73 39.16 35.60 34.56 34.11 33.38 33.85 32.79 31.66 33.22 31.62 32.22 33.10 28.95 26.89 20.12 22.13 22.10 28.00 23.71 26.43 26.67 22.23 26.53 28.25 29.46 28.40

GFSMA_sfc_wetblb_177.txt.gz
Wetbulb
46.64 46.84 46.76 47.46 47.89 49.22 49.74 50.88 52.82 56.04 58.58 61.46 63.79 64.98 65.51 66.47 65.62 64.98 64.77 63.01 64.35 65.76 67.58 68.47 69.82 70.22 70.06 69.89 69.25 69.29 69.05 68.47 67.96 67.68 67.17 67.00 66.91 66.83 66.81 66.75 66.67 66.68 66.55
47.38 47.77 47.52 47.88 47.82 48.31 48.86 49.31 49.75 51.13 54.06 56.93 59.25 61.85 63.43 64.79 65.87 65.93 64.80 64.80 64.27 64.91 65.81 67.73 68.59 70.56 70.62 70.26 69.96 69.78 69.44 69.40 68.91 68.65 68.13 67.48 67.08 67.26 67.17 67.11 67.06 67.07 67.14
48.99 48.46 48.37 48.32 48.46 48.68 49.07 49.41 49.24 49.77 50.02 52.36 53.13 56.04 58.92 60.24 62.60 63.85 64.94 65.71 64.47 62.88 64.16 66.38 68.42 70.21 70.34 69.87 69.85 70.34 70.08 69.92 69.59 69.05 68.86 68.50 68.28 68.26 67.55 67.34 67.39 67.52 67.62
49.54 48.64 48.58 48.34 49.08 49.34 49.24 48.59 48.54 48.46 48.55 48.94 49.15 51.15 53.88 56.66 58.59 59.63 61.43 63.14 65.10 64.39 63.38 64.79 65.95 68.86 69.61 69.97 68.98 69.77 70.16 69.86 69.60 68.98 69.02 68.49 68.23 68.21 67.98 67.98 67.92 67.68 67.68
49.55 48.25 48.20 48.19 48.47 48.62 48.27 48.22 47.80 47.25 47.27 47.91 49.06 49.91 50.43 51.91 54.74 57.47 57.62 59.15 59.99 63.15 63.37 63.20 63.75 64.36 65.59 68.74 69.07 69.35 69.79 69.42 69.04 69.41 68.97 68.47 68.50 68.53 68.39 67.82 67.80 67.54 67.84
48.67 48.22 47.94 47.70 48.24 48.16 47.86 47.98 47.42 48.08 47.32 47.46 49.42 49.47 49.13 50.21 51.60 53.11 55.66 58.59 59.05 60.27 62.03 62.35 62.14 62.48 63.00 64.75 66.96 69.10 69.22 69.02 68.57 68.41 68.53 68.49 68.64 68.87 68.65 68.44 68.04 67.96 68.12
48.33 47.81 47.59 47.54 47.85 47.55 47.52 48.34 48.20 47.85 47.56 48.09 46.74 48.40 48.22 49.63 49.77 50.68 52.70 54.88 57.51 59.40 59.89 61.24 61.50 61.77 62.22 63.53 64.93 66.47 67.41 67.83 68.07 67.94 68.02 68.37 68.20 67.66 67.13 67.91 68.24 68.10 68.13
48.11 48.21 47.18 47.39 47.39 47.27 48.18 48.31 47.85 47.54 47.63 48.47 46.50 45.87 44.24 45.82 48.28 50.82 50.58 54.04 53.85 56.78 57.94 59.54 60.76 60.63 60.55 61.15 61.56 63.81 64.54 65.54 66.50 66.87 67.29 67.52 67.24 66.78 67.00 67.06 67.67 67.87 68.04
47.78 47.98 48.05 47.98 47.79 47.84 48.06 48.38 48.12 47.87 46.37 47.47 47.75 46.95 44.87 44.98 46.57 48.28 49.56 50.77 54.22 54.12 56.84 57.34 58.97 60.79 60.44 59.67 60.51 61.02 61.83 63.25 64.72 65.68 66.32 67.16 67.13 67.05 67.21 67.30 67.50 68.06 67.96
47.83 48.69 48.94 48.70 48.61 48.81 48.17 49.01 50.49 48.17 46.90 45.69 47.01 49.81 48.17 47.49 43.69 42.43 47.11 48.76 53.15 54.57 55.13 56.87 56.85 58.11 60.12 60.39 60.49 59.24 59.82 61.61 63.77 65.08 66.10 66.54 66.81 67.03 67.40 67.42 67.44 67.61 67.86
48.20 48.99 49.37 49.16 49.00 49.40 49.57 50.69 48.13 47.20 47.22 46.48 46.03 46.16 46.34 46.57 46.65 44.90 43.05 45.62 47.94 52.26 54.37 55.75 56.63 55.83 57.84 60.32 60.75 59.69 59.91 61.98 64.18 65.44 66.69 66.65 66.80 66.90 66.62 65.82 64.86 64.48 64.20
48.03 48.55 49.33 49.07 49.61 49.96 50.68 51.58 47.92 46.88 46.90 46.88 46.90 46.93 47.31 46.08 45.60 47.22 46.39 46.15 46.13 48.73 51.75 54.20 54.46 55.51 56.92 58.37 58.98 57.17 58.43 60.96 63.02 64.23 65.82 65.98 65.23 63.93 63.51 62.98 63.18 63.33 63.32
49.19 48.12 48.22 48.78 49.25 50.54 51.71 50.32 47.01 46.70 46.90 46.52 46.63 47.15 48.37 49.24 50.75 50.72 50.08 48.77 45.93 47.32 49.49 52.10 52.90 54.81 55.07 55.96 56.79 54.30 56.50 58.96 60.70 62.07 63.99 63.77 63.17 62.38 61.89 61.96 62.03 61.65 61.47
50.37 50.25 50.82 49.13 49.18 49.91 49.70 49.64 47.08 47.13 47.49 46.79 46.32 46.90 48.14 49.34 50.92 51.90 50.68 49.33 46.12 45.20 47.62 48.09 50.21 52.22 53.28 52.79 53.00 53.50 54.99 56.75 58.60 60.03 60.38 59.93 58.96 58.47 58.11 57.64 57.19 56.96 56.86
48.58 48.50 49.12 49.09 48.60 49.23 50.16 49.47 48.50 46.16 46.50 46.66 46.77 47.38 47.82 48.79 49.29 50.33 52.10 51.62 49.20 45.93 44.79 46.74 48.41 52.37 50.82 51.15 51.75 52.10 52.91 54.31 55.73 55.38 55.15 54.90 54.49 53.62 53.60 53.50 53.37 53.39 54.01
46.92 47.11 47.29 47.53 48.32 49.92 50.15 49.23 48.38 47.46 45.29 45.73 47.26 46.54 47.36 47.67 48.27 48.37 49.29 50.14 49.08 48.27 47.42 48.81 51.47 51.77 50.64 50.53 50.57 50.52 50.38 50.57 53.30 53.11 52.27 51.84 51.71 51.43 51.20 51.21 50.98 51.18 51.53
46.08 46.36 46.67 46.61 47.20 47.64 47.62 48.56 47.88 47.83 46.08 44.40 44.79 45.60 45.77 46.68 48.39 48.55 47.80 48.80 50.04 50.27 48.84 50.00 50.64 49.06 48.84 47.91 48.53 49.43 48.92 47.51 49.07 50.36 50.47 50.35 50.65 50.28 49.85 49.56 49.35 49.25 49.49
45.64 45.85 45.71 45.74 45.60 46.15 46.83 47.07 46.48 46.65 46.10 45.92 46.60 44.78 44.93 47.12 45.30 45.61 45.71 45.93 46.32 46.57 46.01 43.92 48.08 48.96 46.95 46.60 46.11 45.95 46.78 46.69 45.26 48.82 48.76 48.91 48.95 48.82 48.57 48.48 48.29 48.26 48.04
44.71 44.30 44.47 43.87 43.96 44.70 44.61 44.99 44.85 45.16 45.88 46.25 47.17 47.55 47.56 47.41 46.56 45.28 44.16 43.92 44.27 45.87 44.58 43.65 43.21 45.28 45.12 45.10 44.70 44.09 43.64 42.57 44.64 46.19 47.41 47.58 47.70 48.15 48.23 47.63 47.16 46.33 45.71
43.49 43.21 43.10 42.95 43.08 43.04 43.46 43.32 43.28 44.30 46.12 46.41 47.80 48.54 48.42 47.71 46.65 46.68 46.69 45.87 46.47 45.82 44.67 43.69 43.12 43.44 45.73 46.90 45.41 41.63 39.89 40.73 40.67 42.15 42.64 44.42 45.98 46.81 47.04 46.64 45.25 44.52 43.90
43.21 42.82 42.05 41.84 41.95 42.22 43.52 42.41 42.29 41.69 42.93 45.62 46.83 47.07 47.60 45.68 45.43 47.24 46.20 45.78 45.10 45.13 45.10 45.21 45.04 45.89 44.51 42.54 41.29 41.56 40.94 39.57 39.85 38.52 38.29 36.94 39.63 42.62 43.40 44.97 43.67 43.28 43.35
41.37 41.08 40.68 40.67 40.66 42.61 44.82 46.01 44.41 40.67 41.42 41.62 41.97 42.88 43.91 44.89 44.92 46.19 45.73 44.79 44.21 41.74 39.29 38.95 41.04 39.55 39.19 36.60 37.15 38.02 37.43 37.86 36.04 36.19 32.30 32.37 38.67 36.84 40.22 41.66 41.96 42.64 41.21
39.09 39.25 39.25 39.43 39.29 39.72 44.15 45.63 46.08 41.35 39.81 39.00 40.12 40.53 41.06 42.91 42.19 43.03 45.35 44.22 42.54 42.50 41.40 37.49 39.80 39.38 39.20 34.33 33.19 31.80 31.23 30.66 30.94 31.46 30.03 29.58 33.14 30.46 33.72 35.23 37.96 40.47 38.53
37.35 37.48 37.75 38.21 38.07 39.21 43.36 44.71 45.46 40.77 38.25 37.44 38.15 38.89 38.39 38.65 39.93 41.64 40.11 41.86 40.74 37.20 36.21 36.87 34.76 33.95 33.09 31.78 30.37 30.41 29.25 28.76 28.66 31.43 28.66 24.18 27.54 27.80 28.99 30.77 38.15 38.09 37.02
35.33 35.84 36.92 37.03 36.75 37.33 41.80 43.29 43.09 38.28 36.97 36.12 36.69 37.88 37.67 37.06 39.85 41.33 36.88 35.05 34.93 36.47 39.58 39.23 37.60 38.08 37.62 36.35 32.60 28.95 25.82 24.07 23.60 28.13 27.39 25.72 25.19 25.15 26.34 27.98 35.27 36.39 34.82
34.92 35.21 35.33 35.68 37.81 36.62 40.26 42.30 42.28 37.52 35.67 35.41 35.66 36.00 40.77 38.96 40.85 40.95 34.92 33.16 33.27 35.25 33.75 33.39 32.18 34.31 32.09 32.74 33.19 28.71 26.97 20.85 22.63 22.14 28.17 22.97 22.88 23.21 19.96 25.55 27.35 28.59 27.50

GFSMA_sfc_wetblb_180.txt.gz
Wetbulb
46.40 46.43 46.24 46.85 47.14 48.28 48.31 48.78 49.34 50.39 51.30 53.80 56.53 59.13 61.35 61.91 63.71 64.58 64.23 63.69 65.17 66.32 67.51 68.53 69.21 69.08 69.55 69.73 69.86 69.86 69.55 69.44 68.85 68.13 68.09 67.42 66.61 66.55 66.51 66.43 66.45 66.66 66.71
47.44 47.90 47.57 47.64 47.56 47.76 48.27 48.39 48.49 48.86 49.55 50.67 52.04 53.60 55.57 58.34 60.62 61.91 63.40 63.62 64.80 65.86 66.65 67.73 68.72 69.20 69.17 69.42 70.13 70.05 69.59 69.47 69.50 69.14 68.88 68.40 66.71 66.50 66.73 66.81 66.96 66.94 67.03
48.23 47.94 47.81 47.86 47.98 48.21 48.48 48.66 48.51 48.74 48.55 49.73 49.03 50.88 52.23 53.45 55.98 57.89 60.10 61.34 62.82 63.75 65.07 65.85 66.53 67.69 68.89 69.33 69.60 70.05 69.82 69.36 69.23 69.17 69.18 68.93 68.56 68.10 67.79 67.51 67.32 67.37 67.42
48.59 47.84 47.72 47.42 48.04 48.16 48.06 47.46 47.58 47.31 47.42 47.65 47.46 48.56 49.75 51.50 52.96 54.85 56.98 58.29 59.71 61.22 63.04 64.69 64.81 65.85 66.91 68.86 69.36 69.01 69.79 69.20 69.03 69.09 69.22 68.89 68.27 68.12 67.85 67.66 67.71 67.54 67.53
48.16 47.27 47.15 47.32 47.46 47.90 47.61 47.59 47.33 46.62 46.68 47.44 48.39 48.94 49.06 49.20 50.21 53.33 53.08 54.62 55.87 57.81 58.87 61.63 63.03 63.76 65.06 66.61 67.97 68.81 69.68 68.95 68.60 68.66 68.93 68.87 68.45 68.18 67.94 67.91 67.70 67.44 67.38
47.49 47.40 47.24 46.99 47.50 47.45 47.31 47.69 47.21 47.80 47.16 47.23 49.04 48.78 48.56 49.08 49.70 49.81 51.40 54.41 55.60 56.90 57.43 58.67 60.10 60.93 62.41 64.30 66.22 67.44 67.78 67.47 67.83 67.78 68.26 67.65 67.55 68.15 68.11 68.16 68.15 67.86 67.93
47.52 46.90 46.78 46.87 47.20 46.78 46.78 48.00 47.79 46.93 46.71 47.35 45.61 46.27 47.16 48.12 48.39 49.58 50.53 51.32 54.24 54.24 56.32 57.98 59.31 61.18 61.35 63.01 64.28 65.68 66.71 67.12 67.47 67.39 67.49 67.41 67.61 67.72 67.79 67.92 67.46 67.44 68.11
47.45 47.75 46.71 46.93 46.98 46.69 47.28 47.41 47.00 46.55 46.64 47.48 44.96 44.03 42.50 44.74 47.24 48.40 48.82 50.33 50.99 54.55 54.76 55.74 56.78 58.65 60.04 61.09 61.03 63.11 64.75 66.42 67.22 67.00 66.89 66.67 66.78 67.12 67.13 67.23 66.87 67.22 67.56
47.59 47.96 47.62 47.45 47.43 47.39 47.14 46.98 47.18 46.91 45.24 46.26 46.18 45.01 41.26 40.39 44.42 46.46 46.86 48.56 49.33 51.20 53.94 55.71 56.19 56.56 57.45 59.01 60.32 60.27 61.22 63.10 65.59 67.12 66.95 66.63 66.14 66.87 66.68 66.77 67.08 67.30 67.20
47.49 48.48 48.70 48.43 48.15 48.36 47.72 47.93 50.05 47.05 45.77 44.49 45.99 48.92 46.75 46.22 44.34 42.42 45.95 46.97 49.36 50.33 52.06 54.31 55.48 55.05 55.13 56.71 58.10 57.98 59.37 61.27 63.77 65.53 66.26 66.55 66.52 66.80 67.17 67.12 67.05 66.53 65.54
47.53 48.53 48.70 48.31 48.15 48.94 48.83 49.31 47.48 46.19 46.22 45.53 45.12 45.12 44.87 45.36 44.91 45.93 44.67 45.90 48.02 48.74 51.04 53.45 53.61 55.14 54.99 55.95 57.35 58.62 59.00 61.65 63.58 64.88 65.53 66.32 66.68 66.79 65.99 65.95 64.35 64.20 63.77
48.34 47.82 48.59 48.04 48.49 48.74 48.79 51.01 46.87 45.78 45.78 45.92 45.90 45.82 46.11 46.46 44.98 47.57 47.16 48.09 48.41 47.17 49.75 52.32 51.46 52.82 54.43 54.92 56.09 55.44 57.32 59.84 62.32 63.74 64.50 64.72 64.07 64.46 64.09 63.54 63.70 63.24 62.72
49.20 49.36 48.96 47.77 48.13 48.65 49.63 49.75 46.43 45.90 45.99 45.50 45.21 45.81 46.94 47.18 48.33 49.27 48.97 48.39 47.78 46.28 47.37 49.47 49.86 52.17 53.98 53.84 54.11 53.62 56.19 58.95 59.79 60.65 63.06 64.53 63.14 62.27 62.14 62.10 61.70 60.80 59.95
50.18 48.04 48.87 50.59 48.38 48.09 48.39 48.56 48.41 46.06 46.08 45.68 45.09 45.55 46.62 47.56 49.23 49.58 49.38 48.78 46.20 45.50 45.60 46.37 49.29 52.47 51.93 52.25 52.55 53.29 54.72 56.03 57.75 59.12 59.77 59.18 57.77 57.19 57.32 57.28 57.23 57.01 56.75
47.78 47.50 47.41 47.74 47.14 47.32 47.50 47.58 48.76 47.69 44.94 44.95 45.07 45.68 46.26 47.39 47.81 47.63 48.04 48.78 46.71 44.59 45.67 46.28 47.16 51.96 51.47 51.37 51.14 51.06 52.86 53.68 54.34 54.76 54.97 54.59 54.26 54.24 53.73 53.63 53.75 53.91 53.99
45.99 46.19 46.03 46.19 46.52 46.93 47.58 47.85 48.44 48.12 46.83 44.38 45.52 44.41 44.84 45.70 46.26 47.68 48.70 48.35 49.02 47.74 45.45 46.93 51.19 50.57 50.33 50.82 50.71 48.91 49.59 50.09 51.59 52.46 52.29 51.53 51.25 51.35 51.15 51.05 51.20 51.41 51.59
45.28 45.51 45.80 45.87 45.71 45.46 45.69 45.44 46.59 47.05 46.56 45.60 44.06 44.08 44.24 44.92 44.98 45.05 45.85 47.00 47.43 48.50 47.83 46.93 48.14 48.47 47.25 47.09 47.98 47.14 46.21 46.31 47.99 49.64 50.15 50.35 50.04 49.75 49.48 49.29 49.24 49.48 49.48
44.94 45.36 45.48 45.01 44.53 44.34 44.53 44.14 43.98 44.27 44.96 45.46 46.30 46.76 46.25 46.61 45.26 44.86 43.82 43.41 43.74 44.91 45.90 42.89 45.38 46.01 45.09 44.93 44.74 43.43 45.05 45.13 45.17 48.24 48.57 48.94 49.37 49.33 48.89 48.67 48.42 48.20 47.71
44.08 44.25 44.21 43.40 42.93 43.21 43.13 43.27 43.26 42.82 43.98 45.78 46.44 47.07 47.47 47.63 46.94 46.67 46.19 45.39 44.58 45.28 43.22 42.59 42.15 44.13 44.00 44.01 43.00 42.50 41.73 41.03 43.32 45.13 46.77 47.41 48.04 48.46 48.10 47.79 47.27 46.35 45.36
43.53 43.28 42.73 42.27 42.11 41.92 42.27 42.42 42.43 41.79 42.15 44.21 46.32 47.99 48.10 47.60 46.37 46.14 46.50 46.43 46.12 45.58 45.13 44.35 44.08 43.54 43.09 46.34 45.28 43.03 41.97 41.55 39.50 41.06 42.51 42.37 45.97 46.85 47.53 46.62 45.10 44.30 43.91
43.14 42.61 41.55 41.24 41.01 41.21 42.56 41.21 41.40 40.68 40.52 40.88 42.37 43.84 44.71 44.96 45.16 46.18 46.35 45.21 44.59 44.26 44.18 43.83 43.66 44.99 42.98 39.98 38.22 38.90 39.76 40.59 39.74 37.11 38.59 35.11 37.68 42.54 43.31 44.23 43.62 43.20 42.53
40.70 40.61 40.46 40.23 39.78 41.69 44.24 45.58 44.68 40.22 40.15 39.92 39.46 40.99 41.75 43.12 43.93 45.16 46.60 45.65 44.36 42.53 40.86 37.32 39.74 39.85 40.16 37.59 35.39 34.40 34.31 33.93 33.49 33.82 30.43 30.68 36.78 37.39 38.04 37.63 41.23 41.79 40.67
38.51 38.30 38.27 38.47 38.35 38.68 43.59 45.25 45.92 41.86 39.78 38.80 38.11 38.32 39.91 41.98 42.31 40.35 42.58 45.70 44.21 43.18 42.15 39.20 38.10 39.63 38.89 37.50 32.63 31.35 30.93 30.10 30.05 29.98 29.20 28.59 31.19 29.29 31.70 33.18 37.58 39.65 38.56
36.32 36.40 36.66 37.02 37.04 38.26 42.70 44.16 45.14 41.03 38.98 38.04 37.27 36.86 37.07 37.91 38.75 39.57 38.79 37.66 38.22 37.78 36.04 36.50 34.20 34.29 34.16 32.08 30.79 30.33 29.02 28.52 28.47 29.20 28.69 23.96 26.78 27.24 28.65 30.38 37.94 38.08 36.63
34.15 34.60 35.61 35.75 35.45 36.52 41.06 42.89 43.02 38.43 37.35 36.93 36.83 36.22 35.81 36.23 40.10 42.54 36.98 34.66 33.61 34.47 39.74 40.62 38.62 38.31 37.91 36.63 31.79 29.01 26.14 24.06 23.35 27.21 27.60 26.29 25.08 24.79 25.97 27.54 34.32 36.69 34.55
34.03 34.16 34.13 34.41 36.76 35.50 39.39 41.59 42.10 37.37 35.70 35.95 35.49 35.39 39.70 37.81 40.69 42.52 36.64 33.14 31.23 31.83 35.86 35.84 32.51 35.24 34.04 33.61 34.39 28.38 26.73 21.19 23.03 22.01 26.06 23.54 22.67 23.00 19.95 25.32 27.81 28.45 28.16

GFSMA_sfc_wetblb_183.txt.gz
Wetbulb
53.09 53.27 53.42 53.47 53.64 54.16 54.23 54.49 54.77 54.71 54.88 55.30 55.91 56.46 57.03 58.14 59.52 61.30 62.79 63.37 65.24 66.27 66.84 67.73 68.98 69.44 69.48 69.61 70.08 69.94 69.88 69.40 69.10 68.88 68.39 68.02 67.92 67.75 66.87 67.00 67.01 66.72 66.66
52.63 53.01 52.98 53.15 53.47 53.52 53.66 53.84 53.76 53.93 54.16 54.44 54.61 54.98 55.21 56.22 57.07 58.22 59.67 60.47 63.45 64.87 64.05 64.25 65.42 67.05 68.98 69.71 69.61 69.97 69.73 69.84 69.82 69.15 68.76 68.54 68.19 67.70 67.29 67.21 66.98 66.95 66.96
52.50 52.48 52.56 52.72 52.90 52.91 52.87 53.27 53.26 53.58 53.52 53.71 53.64 54.12 54.65 55.41 56.03 56.53 57.70 59.04 60.00 60.98 62.79 62.73 63.28 64.16 64.52 65.99 68.76 69.40 69.61 69.47 69.29 69.45 69.17 68.63 68.31 68.14 67.65 67.72 67.78 67.74 67.30
52.17 52.02 51.87 51.96 52.35 52.76 52.94 52.97 53.13 53.07 53.28 53.29 53.41 54.02 54.46 54.75 54.83 55.54 56.86 57.86 58.83 58.89 59.87 60.45 61.40 62.17 62.72 63.55 66.08 68.20 69.08 69.04 68.66 68.68 69.04 69.01 68.49 67.92 67.72 67.90 68.13 67.81 67.62
50.96 50.93 51.17 51.43 51.84 52.27 52.44 52.37 52.74 52.47 52.30 52.53 52.34 52.94 54.07 53.65 54.44 54.54 55.07 56.14 57.49 58.70 59.56 60.04 60.35 61.15 62.30 63.17 63.69 65.88 67.49 68.12 68.42 68.31 68.30 68.66 68.82 68.69 68.27 67.78 67.43 67.80 67.59
50.78 50.95 51.03 51.00 51.49 51.58 51.98 52.64 52.11 52.68 52.10 52.00 51.14 51.37 52.56 53.84 54.75 55.04 54.24 55.56 56.52 58.28 58.50 58.82 60.22 61.19 61.38 62.60 64.34 65.06 66.14 66.72 68.34 68.15 67.68 67.83 67.66 68.41 68.11 67.90 68.01 67.89 68.04
50.64 50.72 51.04 51.08 51.44 51.06 51.29 51.84 52.10 51.41 51.58 52.05 50.88 50.74 52.59 52.93 53.79 53.27 54.75 54.59 55.34 55.56 57.27 58.39 59.79 61.04 61.66 61.54 61.60 62.67 65.10 66.12 67.10 67.70 67.26 66.64 65.09 66.62 67.25 67.61 67.53 67.85 67.93
50.67 51.23 50.90 51.03 51.25 51.32 51.60 51.63 51.39 51.02 51.27 51.67 49.13 48.67 46.46 50.18 52.16 52.61 53.38 53.56 53.84 55.50 55.79 57.25 58.08 59.06 59.44 60.88 61.66 61.31 61.68 63.50 66.08 67.10 66.89 66.62 65.50 66.33 67.33 67.21 67.00 67.64 67.56
50.84 51.55 51.50 51.77 52.00 52.08 51.86 51.92 51.83 50.83 49.52 50.93 50.67 49.05 45.90 44.57 47.54 51.21 51.59 52.97 53.60 54.44 55.30 56.13 57.01 58.17 57.95 59.22 60.16 60.11 59.74 61.24 63.79 65.89 67.02 66.96 65.65 64.71 65.26 67.85 66.97 67.22 66.77
50.78 51.72 52.01 51.94 51.95 52.46 52.20 52.45 53.20 51.48 50.34 48.90 50.70 51.23 50.70 49.27 46.11 45.67 50.82 52.08 53.59 54.00 54.68 55.41 56.42 57.57 57.81 58.96 58.23 57.52 57.82 59.66 62.70 64.77 66.03 66.97 66.67 66.46 66.40 65.19 66.73 66.76 66.64
50.86 51.13 51.69 51.67 51.63 52.33 52.42 52.41 52.20 50.71 50.51 49.95 49.80 49.55 48.95 48.57 49.51 46.70 44.29 48.81 52.45 54.10 54.80 54.93 55.65 56.94 57.63 58.03 59.22 58.29 57.35 59.38 62.41 64.34 65.72 65.95 65.50 65.66 65.43 65.37 65.84 66.30 64.43
51.10 51.41 51.12 51.57 51.62 51.75 51.86 52.16 50.76 50.18 50.05 49.92 49.99 49.62 48.56 47.72 47.02 47.21 47.01 47.42 49.21 51.56 53.76 54.56 55.27 56.67 56.99 57.33 56.26 55.38 57.63 59.49 59.91 63.20 63.48 63.47 64.50 65.98 65.52 65.20 64.32 63.15 63.33
50.23 50.64 51.55 51.54 51.21 51.39 51.37 51.75 50.24 50.48 50.63 49.95 49.76 49.80 50.41 49.75 49.84 48.88 47.61 46.59 47.73 50.78 52.25 54.31 55.21 55.56 55.04 56.53 56.24 53.69 54.74 57.98 60.69 61.49 63.41 64.44 63.48 63.13 63.06 62.90 62.53 61.71 61.42
50.76 51.58 50.82 51.03 51.22 50.56 50.69 51.00 50.34 49.83 50.44 49.98 49.45 50.08 50.40 51.16 50.92 50.31 48.51 48.31 46.75 47.60 50.46 51.21 54.49 54.77 54.12 54.00 53.19 53.31 54.71 54.59 56.83 58.56 59.35 59.27 58.53 58.14 58.28 58.38 58.39 58.14 57.82
48.93 49.92 50.20 49.78 49.70 49.58 49.74 50.16 50.12 49.36 48.74 48.51 48.72 49.20 49.09 50.23 50.53 50.77 50.05 50.31 48.87 45.52 46.37 51.40 52.84 53.84 52.44 52.45 51.02 53.76 52.75 52.18 53.17 53.79 53.94 54.15 54.39 54.14 54.39 54.50 54.62 54.59 54.70
48.18 48.59 48.50 48.47 48.59 48.73 49.03 49.05 49.05 49.48 48.21 48.14 47.90 47.69 48.23 48.98 49.31 50.19 50.28 49.25 50.33 49.04 46.83 50.36 53.50 52.91 52.42 52.29 50.07 51.19 50.63 49.96 50.81 51.86 51.59 51.22 51.25 51.34 51.36 51.83 51.95 52.26 52.38
47.87 47.65 47.74 47.67 47.78 47.66 47.66 47.77 47.80 47.94 47.56 47.48 47.14 46.69 47.20 48.10 48.59 48.78 48.92 48.57 48.32 47.93 47.04 49.36 51.34 52.48 51.90 51.20 50.50 49.85 49.57 50.14 49.91 49.87 50.23 50.13 49.99 49.82 49.73 49.72 49.91 50.18 50.52
47.78 47.00 47.12 47.24 46.99 46.75 46.67 46.46 46.24 46.95 46.28 46.01 46.39 46.81 46.98 47.53 47.88 48.14 47.82 47.18 47.16 47.72 46.64 45.43 48.86 49.94 50.23 50.07 49.41 47.69 46.83 47.56 48.48 48.21 49.00 49.49 49.68 49.40 49.25 49.02 48.46 47.92 47.15
46.77 46.41 46.46 46.08 45.97 45.78 45.49 45.80 45.90 45.96 45.54 46.08 46.68 46.68 47.30 48.07 47.75 47.96 47.56 46.82 46.59 45.99 46.34 45.01 44.47 47.84 48.70 49.57 48.38 47.25 46.21 45.85 45.45 45.50 46.58 47.40 48.66 48.42 48.31 47.82 47.02 46.19 45.16
46.36 45.82 45.68 45.45 45.14 44.86 44.72 44.98 45.05 45.28 45.09 45.07 45.94 46.56 47.71 47.86 47.88 47.47 47.18 46.98 46.70 45.92 46.01 45.49 45.21 45.47 46.19 47.97 46.65 44.53 44.33 45.28 43.95 42.74 43.38 42.51 45.84 46.84 47.74 46.80 45.45 44.50 43.52
45.80 45.77 45.01 44.58 44.65 44.34 44.28 44.43 44.39 44.46 43.96 43.66 44.42 44.69 45.73 45.68 45.02 46.61 46.15 46.75 45.91 44.89 44.53 43.91 43.36 44.08 43.88 44.25 43.59 43.60 43.21 43.53 41.89 40.57 41.85 40.92 44.09 43.85 44.49 44.73 43.86 42.84 41.80
44.11 44.26 43.72 43.51 43.80 43.73 44.40 45.25 45.68 44.22 43.64 43.07 42.80 43.31 43.43 43.53 44.66 45.83 45.85 45.80 45.98 44.49 43.47 41.57 41.63 40.27 41.03 41.15 40.10 40.55 40.19 40.06 40.10 38.38 37.51 38.00 41.37 41.80 40.87 41.90 40.00 41.55 40.40
41.84 41.95 42.23 42.19 42.12 42.67 43.73 45.13 45.76 45.59 44.23 43.71 43.13 42.58 41.98 41.99 43.46 44.18 43.84 44.28 45.55 44.95 44.08 43.01 41.11 40.28 39.64 40.89 38.05 38.61 37.98 37.63 37.86 36.76 35.92 35.64 38.25 38.28 39.12 36.83 37.79 39.89 39.04
39.70 39.99 39.98 40.24 40.58 40.90 42.31 43.78 44.89 45.05 43.86 43.35 42.99 42.54 41.66 41.26 41.37 42.11 42.18 41.88 41.82 42.20 42.59 40.96 40.79 40.91 40.58 40.28 38.74 36.68 35.44 34.55 34.48 34.33 34.69 33.19 33.68 34.40 35.22 37.66 38.05 38.76 37.05
37.82 38.03 38.21 38.47 38.29 39.30 40.52 42.23 43.43 42.98 42.05 41.83 41.63 41.50 40.89 40.39 40.77 41.51 41.89 40.51 39.53 39.27 40.03 41.45 40.31 39.10 38.99 37.95 35.60 34.16 32.58 31.40 31.17 32.70 33.57 33.29 32.35 32.09 32.44 35.43 37.91 37.71 34.91
36.71 36.89 36.72 37.31 37.94 38.13 39.51 40.87 41.91 41.49 39.88 39.83 40.19 39.72 40.75 40.70 40.67 41.31 41.23 40.65 38.62 38.85 37.67 38.30 37.89 39.09 39.49 38.52 36.52 33.03 32.35 30.87 30.43 29.85 32.45 31.43 30.38 30.26 29.93 32.33 34.50 35.09 34.94

GFSMA_sfc_wetblb_186.txt.gz
Wetbulb
56.21 56.32 56.52 56.84 57.26 57.64 57.60 57.49 57.62 57.56 57.58 57.68 57.82 57.58 57.60 57.84 58.22 58.50 59.16 60.86 62.87 63.56 63.82 64.57 65.19 66.81 68.27 68.80 69.39 69.67 69.94 69.56 69.62 69.06 68.64 68.75 68.29 68.01 67.88 67.63 67.03 66.87 66.92
54.83 54.76 54.77 54.97 55.49 56.10 56.20 56.14 56.00 56.02 56.29 56.66 56.54 57.00 57.17 57.65 58.03 58.33 58.74 59.21 60.87 61.66 61.94 62.44 62.78 63.62 64.50 65.55 66.94 68.27 68.91 69.25 69.49 69.58 68.99 68.94 68.40 68.15 68.13 68.15 67.80 67.44 66.88
55.33 55.45 55.44 55.58 55.92 56.07 55.85 56.09 56.13 56.29 56.16 56.45 56.31 56.81 57.16 57.30 57.35 57.31 57.79 58.28 59.16 59.77 61.07 61.06 61.63 61.80 62.42 63.24 64.16 65.20 67.11 68.05 68.75 69.15 69.28 69.03 68.36 68.27 68.34 68.12 67.77 67.80 67.77
55.20 54.84 54.76 54.91 55.44 55.57 55.72 55.58 55.60 55.29 55.46 55.39 55.19 55.51 55.73 56.51 56.48 56.92 57.41 58.04 58.36 58.34 59.69 60.61 60.51 61.44 62.15 62.56 62.73 63.12 63.61 66.38 67.73 68.19 68.67 68.90 68.66 68.25 68.46 68.46 67.95 67.89 68.08
54.54 54.34 54.43 54.63 54.79 54.88 55.19 55.20 55.14 54.88 54.15 54.36 54.28 54.61 55.19 55.40 56.50 56.61 56.04 57.12 57.88 58.50 59.20 59.86 60.10 60.06 60.82 62.03 63.36 64.17 63.53 63.93 65.64 67.58 67.78 68.33 68.56 68.84 68.56 68.36 68.09 68.01 68.05
54.38 54.35 54.55 54.53 54.73 54.71 54.98 55.37 54.51 54.95 54.47 53.94 53.36 53.88 55.27 56.65 57.68 56.10 56.06 56.35 57.01 57.84 58.40 58.74 59.99 60.50 60.83 61.90 62.89 63.45 64.03 64.63 64.37 66.10 67.41 67.29 67.86 67.99 68.42 68.35 68.03 67.52 66.99
54.09 54.53 54.76 54.75 55.08 54.63 54.43 54.65 54.35 53.86 53.61 54.35 53.16 53.45 54.75 56.40 56.40 55.44 56.12 56.41 56.07 56.85 57.85 58.35 58.94 59.97 59.94 60.60 62.05 63.01 63.57 63.44 63.67 64.29 66.02 67.21 67.32 67.35 66.48 66.02 67.25 66.90 67.05
54.03 54.28 54.45 54.71 54.98 54.71 54.72 54.74 54.35 53.20 53.23 53.84 51.35 51.72 49.89 52.76 54.32 55.22 55.43 55.64 56.05 57.07 56.88 57.63 57.99 58.69 59.72 59.36 59.85 60.36 61.35 62.21 63.02 64.06 65.02 65.98 66.64 66.71 65.62 64.91 65.30 66.20 66.06
54.06 54.67 54.86 55.14 55.22 55.35 54.68 54.88 54.42 53.05 51.17 53.10 53.36 51.19 48.71 47.85 49.86 54.43 53.96 55.11 55.78 56.40 56.89 57.03 57.45 58.32 58.68 59.12 59.54 59.93 59.42 58.94 61.31 63.88 65.08 66.13 66.12 66.70 66.23 65.68 65.37 63.78 65.02
53.70 54.05 54.69 54.93 54.93 55.18 54.79 54.73 54.30 53.80 52.83 50.84 53.06 53.48 52.63 50.80 46.11 47.15 52.40 53.90 55.31 55.49 56.32 56.79 57.37 58.35 58.65 59.30 58.62 57.65 57.44 58.73 60.27 63.23 64.63 65.20 65.82 66.77 66.64 65.90 65.11 63.24 62.82
53.69 53.57 54.03 54.28 54.11 54.47 54.48 54.47 54.36 52.86 53.25 51.80 51.81 51.54 50.40 49.66 50.59 47.17 45.50 49.67 53.28 55.35 56.14 56.48 57.26 58.34 58.49 59.28 59.35 57.37 56.73 60.51 61.79 62.88 64.64 65.35 66.05 66.34 66.31 65.76 65.48 64.74 63.18
53.78 53.05 52.62 52.99 53.59 53.60 53.43 53.83 54.21 53.11 52.84 52.86 52.51 51.69 49.65 48.16 47.55 47.41 46.67 47.48 48.38 53.29 55.44 56.54 57.35 57.90 57.95 58.35 56.86 54.40 55.59 59.10 61.15 62.48 64.17 64.45 65.11 65.85 65.55 64.94 64.84 63.82 62.41
53.37 53.20 52.41 52.14 51.81 52.21 53.13 53.46 52.27 52.20 51.39 51.71 51.49 51.11 51.27 50.29 50.62 49.66 48.24 47.38 46.86 51.54 54.05 56.51 57.08 57.39 56.61 57.51 56.63 52.75 53.02 55.45 57.80 60.15 60.23 63.79 63.35 63.65 63.78 63.51 62.93 61.54 60.93
53.40 54.17 53.64 53.24 52.86 52.87 52.70 52.73 52.30 51.79 51.54 50.11 50.42 51.13 50.86 51.35 51.85 51.03 49.26 48.05 46.13 49.52 51.78 52.69 56.63 56.91 56.11 55.44 53.92 52.79 54.43 53.19 54.38 55.93 58.15 57.59 57.15 58.13 59.35 59.83 59.68 59.68 59.21
52.54 52.73 52.98 52.62 52.24 52.04 51.69 51.67 51.39 51.11 51.06 50.02 49.31 50.01 50.71 51.61 51.71 51.57 51.74 50.69 48.78 45.71 47.68 51.74 51.71 56.55 55.91 55.75 51.66 54.95 53.60 50.68 52.47 52.88 53.01 53.21 53.73 54.22 55.10 55.56 55.66 55.93 56.23
52.18 51.95 52.06 51.49 51.12 51.16 50.94 50.64 50.79 50.97 50.28 49.95 49.11 48.08 49.26 50.61 51.12 51.18 50.84 51.18 51.07 49.31 46.43 51.87 52.45 54.02 55.46 54.94 52.14 53.37 52.24 50.42 50.30 51.23 51.27 50.84 51.12 51.47 51.93 52.66 52.82 53.36 53.46
51.24 51.26 51.55 50.46 50.46 49.96 50.31 49.71 49.56 49.79 49.23 49.38 49.55 47.92 47.11 48.48 49.15 49.45 49.87 49.79 49.32 49.51 46.92 50.30 51.75 52.93 52.14 51.34 53.23 53.02 51.70 52.11 51.08 49.51 49.79 49.67 49.73 49.85 50.43 50.85 51.01 50.61 50.29
50.31 50.96 51.23 49.93 49.57 49.60 49.57 48.72 48.29 48.59 48.18 48.14 48.54 48.10 47.23 47.91 48.01 48.30 48.21 47.45 47.23 47.32 46.13 44.04 47.08 48.29 49.62 51.31 52.06 51.19 49.55 49.63 50.52 48.10 49.34 49.95 49.64 49.63 49.40 48.81 48.25 47.57 47.02
49.39 50.12 50.27 49.65 49.32 49.14 48.63 48.39 48.14 47.85 48.10 48.35 48.26 47.95 47.98 48.01 47.14 47.70 47.53 47.41 46.95 46.71 46.79 45.29 45.12 47.36 47.71 48.98 49.38 50.40 48.14 47.79 47.52 45.68 46.63 47.59 48.85 48.76 48.44 47.73 46.88 45.75 44.43
48.80 49.09 49.49 49.69 49.39 48.76 48.26 47.79 47.71 47.76 47.93 47.82 47.74 48.12 48.20 48.39 48.24 48.64 48.61 48.13 47.02 45.93 45.91 45.58 45.69 46.09 46.95 49.04 48.78 46.95 46.60 48.08 47.11 45.66 44.02 43.28 45.85 46.89 47.83 46.98 45.59 43.92 42.88
48.40 48.56 48.42 48.96 49.08 48.54 47.88 47.76 47.68 47.39 47.23 47.00 47.09 46.93 47.48 46.91 45.34 46.75 47.39 47.64 47.42 46.61 46.00 44.14 43.80 43.69 43.95 43.93 44.28 45.54 45.25 46.55 45.91 43.70 44.36 44.46 44.88 45.51 45.15 44.94 44.04 42.79 41.63
47.32 47.43 47.32 47.48 47.56 47.38 46.61 46.31 46.40 47.09 46.75 46.14 45.76 46.49 46.69 44.31 44.76 45.36 46.08 46.63 45.91 45.71 45.07 44.02 43.15 41.42 41.34 42.54 42.75 41.33 42.03 43.24 42.62 43.25 41.69 42.06 42.45 43.36 43.40 43.88 40.25 41.85 40.54
46.45 46.13 46.25 46.33 46.01 46.55 46.11 45.59 45.88 46.42 46.32 46.31 46.10 45.89 45.56 45.45 44.12 44.61 45.61 45.80 45.53 45.53 45.86 44.73 42.90 43.54 42.75 42.96 41.99 40.33 40.70 41.84 41.96 42.00 38.72 37.81 41.08 40.44 41.34 41.19 37.68 39.80 40.04
44.51 44.74 44.95 45.10 44.85 44.83 44.60 44.30 44.66 45.42 45.59 45.80 45.93 45.84 45.55 45.33 45.45 44.50 43.78 43.66 44.74 45.47 45.60 45.06 44.57 44.54 44.31 44.06 41.57 40.65 41.00 39.88 39.17 38.48 37.63 34.86 38.61 38.06 39.34 39.29 38.31 39.73 38.22
43.33 43.59 43.62 43.28 43.15 43.58 43.18 42.61 42.85 43.62 43.85 44.37 44.96 45.30 44.96 44.54 44.48 44.05 42.49 41.79 42.24 43.32 43.96 42.85 42.71 41.79 40.95 40.76 41.32 39.76 37.30 35.77 34.95 35.68 36.55 35.99 36.79 36.06 36.12 37.33 40.24 38.79 36.36
41.21 41.64 41.41 42.26 42.17 41.42 42.39 41.97 41.54 42.16 42.04 42.67 43.65 43.68 43.29 43.21 43.74 43.35 42.15 41.75 40.54 41.78 43.03 41.47 41.34 41.03 40.35 39.78 38.82 38.26 38.14 34.51 34.11 33.30 36.47 33.97 34.14 33.96 32.75 35.59 37.93 38.11 36.86

GFSMA_sfc_wetblb_189.txt.gz
Wetbulb
54.93 55.24 55.16 55.34 55.72 56.22 56.13 56.03 56.17 56.18 56.02 56.43 57.10 57.26 57.44 57.73 57.91 58.38 58.68 60.91 63.86 62.92 61.75 62.50 63.29 64.02 64.78 65.69 66.75 68.18 68.60 68.71 68.89 69.28 69.05 68.89 68.66 68.57 68.50 68.31 68.09 68.12 67.44
54.71 55.12 55.41 55.74 56.11 56.49 56.35 55.92 55.71 55.70 55.65 55.83 55.66 56.07 55.97 56.52 56.63 57.21 58.05 58.77 61.12 61.70 61.01 61.13 61.97 62.36 62.90 63.61 64.39 65.12 67.06 68.12 68.30 68.65 68.97 69.08 68.53 68.40 68.54 68.44 68.27 68.61 68.20
55.68 55.93 55.73 55.85 56.25 56.58 56.16 56.40 56.33 56.49 56.12 56.49 56.07 56.53 56.84 56.72 56.91 57.15 57.66 57.96 58.49 59.77 61.49 60.96 60.78 61.25 61.62 62.19 62.58 62.76 63.70 65.51 66.57 67.71 68.00 68.58 68.71 68.23 68.49 68.36 68.43 68.45 68.20
55.57 55.12 54.92 55.09 55.85 55.54 55.75 55.61 55.40 55.01 55.11 54.97 54.79 55.06 55.23 55.98 56.04 55.99 56.97 57.31 58.09 57.92 59.71 61.53 60.38 60.54 61.01 61.60 62.41 63.00 63.26 63.79 64.56 64.85 66.33 67.57 68.17 68.25 68.72 68.52 68.27 68.39 68.16
55.26 54.96 55.03 55.25 55.44 55.18 55.36 55.38 55.28 54.86 54.18 54.45 54.53 54.80 55.23 55.33 56.11 56.45 55.98 56.15 57.50 58.10 58.45 59.92 59.80 60.36 60.72 62.21 62.85 63.38 63.67 63.58 64.13 65.13 65.33 65.78 67.35 67.79 68.39 68.49 68.58 68.52 68.31
55.03 54.97 55.24 55.39 55.52 55.04 55.18 55.17 54.34 54.79 54.51 54.11 53.35 54.14 55.02 55.99 56.47 55.97 55.69 56.21 56.81 57.26 57.34 58.17 59.19 59.21 60.61 62.08 61.76 61.79 63.31 63.31 63.55 63.59 63.91 64.87 66.14 67.51 67.26 67.83 68.10 68.62 68.70
54.83 54.83 55.06 55.11 55.48 54.75 54.57 54.78 54.52 53.89 53.95 54.39 53.25 53.42 54.60 55.72 55.64 56.09 56.94 56.58 56.74 57.24 57.54 57.64 58.02 58.20 58.61 60.56 61.66 61.15 61.54 62.68 62.86 63.10 63.48 63.69 64.40 65.56 66.06 66.88 66.90 67.92 68.55
54.70 54.58 54.62 54.64 55.09 54.62 54.68 54.51 54.00 53.05 53.52 54.12 50.98 51.85 49.91 52.46 54.43 55.04 55.98 55.56 55.75 57.19 57.30 57.42 57.65 57.76 58.38 58.59 58.82 60.22 60.17 61.18 62.48 63.31 63.26 63.30 64.07 63.84 65.60 67.02 61.37 60.36 63.67
54.52 54.54 54.61 53.90 54.03 53.73 53.32 53.55 53.49 52.37 51.17 53.15 53.44 50.61 47.84 47.19 48.65 54.17 54.31 54.69 55.19 56.01 56.98 57.06 57.17 57.82 58.29 58.32 59.21 58.81 56.97 58.97 63.35 63.39 63.34 63.82 63.80 64.42 65.13 66.53 64.87 63.51 63.48
54.20 54.48 54.13 53.84 53.48 53.45 53.08 53.61 53.59 52.87 51.65 50.67 52.97 53.14 52.06 49.91 45.69 45.83 51.30 53.23 54.10 54.93 56.18 56.60 56.77 57.51 58.57 58.52 57.80 55.50 56.41 59.32 61.72 63.10 63.35 63.53 63.83 64.41 65.38 65.79 65.92 64.60 64.94
54.67 54.30 53.71 53.18 53.18 52.76 53.02 53.13 53.47 52.32 51.94 51.49 51.29 50.88 50.54 49.92 49.57 47.58 44.49 47.75 51.43 53.44 55.69 56.33 56.95 57.90 57.98 57.81 56.50 55.21 55.22 58.07 60.51 61.43 62.51 61.93 62.33 64.73 65.37 65.71 65.79 65.08 62.76
54.67 54.70 53.50 52.93 52.71 52.66 52.50 52.51 52.93 52.60 51.38 51.85 51.15 50.29 49.28 47.37 47.08 47.86 46.58 46.36 47.34 51.49 53.67 56.06 56.39 56.99 57.10 57.04 54.89 53.35 53.57 55.31 57.82 60.47 61.64 61.32 60.93 64.36 65.09 65.56 64.86 64.18 62.26
53.65 54.50 54.21 53.16 52.82 52.72 52.57 52.39 52.21 52.98 52.24 50.64 50.46 50.02 50.90 50.27 50.56 49.84 48.66 47.29 46.59 49.97 52.49 54.57 54.92 56.81 56.18 55.99 54.87 51.75 51.82 53.46 54.82 57.53 59.96 60.49 59.48 60.86 62.35 64.52 63.99 62.66 61.89
52.86 54.67 54.50 54.20 53.70 53.20 52.89 52.23 51.69 52.20 52.35 50.77 49.82 49.81 50.35 50.66 51.61 51.19 49.57 48.30 45.97 47.76 50.37 51.81 54.70 56.00 55.51 55.34 52.52 52.17 52.68 52.04 52.75 53.94 55.74 56.12 56.56 57.04 58.10 59.02 60.60 60.49 59.89
51.96 53.24 53.58 53.22 53.10 52.53 52.45 52.15 51.29 50.85 51.29 50.98 49.92 49.79 48.96 50.11 50.68 51.01 50.78 50.82 48.50 44.11 45.84 50.01 50.96 54.99 55.28 55.47 50.92 53.47 52.22 50.13 51.63 51.68 52.16 52.70 53.33 54.04 54.63 55.47 56.46 56.51 56.37
51.22 51.72 52.39 52.60 52.19 51.55 51.80 51.38 50.72 50.86 50.41 50.63 50.18 48.89 48.19 48.82 49.49 49.88 50.33 49.94 50.41 48.77 45.34 49.65 50.52 51.88 53.84 53.90 52.49 53.34 51.86 49.70 50.48 50.74 50.72 50.49 51.06 52.23 52.88 53.54 53.93 54.09 54.29
50.78 50.55 51.13 51.67 51.50 50.53 51.06 50.40 49.78 49.72 49.18 49.29 49.73 49.11 48.18 48.27 47.98 48.67 49.17 49.02 48.13 47.99 45.68 47.25 49.02 49.72 49.15 50.17 51.59 51.95 51.21 50.49 48.65 49.78 50.13 50.02 50.03 50.95 51.06 50.52 50.53 50.41 50.45
50.85 50.49 50.46 50.69 50.97 50.21 50.10 49.53 48.73 48.69 48.09 47.90 48.38 48.54 48.20 47.89 47.92 47.94 47.89 47.70 47.57 47.51 45.54 43.55 46.06 46.58 46.91 48.28 48.52 49.20 50.06 49.35 49.20 47.93 49.39 49.90 49.81 49.75 49.15 48.48 47.86 47.29 46.60
50.03 50.19 50.10 49.69 49.79 50.21 49.67 49.44 48.78 48.16 48.01 47.97 48.21 48.05 47.91 48.01 47.37 47.87 47.58 47.06 47.07 46.55 45.57 44.94 44.35 47.26 47.26 48.23 48.09 49.21 48.15 48.04 47.61 46.15 46.99 48.14 49.09 48.89 48.36 47.50 46.40 45.06 44.15
49.54 49.67 49.86 49.69 49.72 49.73 49.66 49.01 48.36 47.76 47.65 47.89 48.36 48.14 47.70 47.73 47.60 47.91 48.02 48.02 47.79 46.60 45.67 44.82 43.84 44.57 45.37 47.45 48.01 46.86 45.99 47.58 46.06 46.45 44.28 43.30 45.85 47.70 48.01 46.82 44.90 43.61 42.79
48.93 49.38 49.11 49.13 49.18 49.14 48.94 48.74 48.31 47.63 47.29 47.08 47.59 47.65 47.40 46.83 45.52 46.63 46.94 47.02 46.80 45.95 45.43 44.80 43.45 43.42 42.81 42.38 42.08 44.07 43.15 44.57 44.92 43.10 43.17 43.81 43.98 45.80 45.67 45.44 43.69 43.05 41.46
47.63 48.15 47.97 47.99 47.92 47.96 47.49 47.30 47.03 46.75 46.82 46.45 45.82 46.44 46.91 44.89 45.09 45.70 46.17 46.30 46.24 45.02 43.86 43.50 43.52 41.54 41.57 41.88 42.61 41.02 40.17 40.65 39.81 41.78 39.52 40.20 40.29 41.89 43.99 44.41 41.68 42.21 41.31
46.62 46.57 46.87 47.07 46.80 47.35 47.08 47.28 46.63 45.99 45.67 45.63 45.71 45.85 45.82 46.03 45.16 45.20 45.74 46.31 46.21 46.58 45.26 43.75 42.85 42.09 41.91 42.54 41.11 40.14 39.23 39.22 39.57 39.55 36.34 35.30 38.44 37.14 39.84 40.14 39.90 40.10 40.79
44.64 44.76 45.09 45.58 45.63 45.81 45.74 45.69 45.80 44.92 44.59 44.96 45.33 45.49 45.39 45.32 45.71 45.37 44.33 43.32 43.57 44.45 45.26 44.81 43.49 43.30 43.54 43.00 41.64 40.47 39.32 38.39 37.61 37.62 35.42 31.31 35.80 34.52 37.01 37.31 39.13 40.40 40.31
42.86 43.03 43.52 43.53 43.49 43.97 44.40 44.18 43.51 42.39 42.65 43.02 44.35 44.90 44.99 44.50 45.28 45.48 43.31 41.86 41.64 42.06 44.42 44.78 44.24 44.22 42.38 41.55 41.26 39.83 36.23 33.89 33.07 34.07 34.28 32.48 33.52 32.54 32.91 33.41 37.83 39.68 37.88
41.68 42.12 41.76 42.50 42.98 42.17 43.27 43.40 42.70 41.55 41.00 41.77 43.16 43.75 44.06 43.86 44.78 44.59 42.62 41.25 39.78 40.65 41.75 41.75 40.09 40.91 41.90 40.24 40.86 38.67 37.01 33.25 31.95 30.40 34.51 31.20 30.98 30.77 28.38 31.83 35.10 36.28 35.89

GFSMA_sfc_wetblb_195.txt.gz
Wetbulb
47.87 48.83 49.44 49.88 50.01 50.48 50.08 49.89 50.28 50.71 50.56 51.03 51.41 50.83 51.13 50.86 50.88 51.48 50.60 57.12 60.89 61.27 60.81 61.23 61.42 61.58 62.05 62.79 62.85 63.09 63.47 63.84 64.29 65.51 66.73 66.83 67.59 68.17 68.26 68.45 68.18 68.16 68.74
48.65 49.43 49.34 49.74 49.71 49.81 49.85 49.79 50.02 50.15 50.14 50.68 51.00 51.40 51.10 50.99 50.96 51.31 51.71 51.92 58.92 60.48 60.41 60.61 60.88 60.96 61.22 61.77 62.17 62.22 62.39 62.61 62.95 63.33 63.64 64.56 66.13 66.63 67.21 68.01 68.51 68.06 67.67
49.36 49.02 49.13 49.34 49.66 49.93 50.26 50.27 50.45 50.55 50.20 50.95 49.92 50.68 50.80 50.26 50.50 50.80 51.48 51.70 52.99 57.18 60.06 60.18 60.38 60.15 60.39 60.89 60.96 61.78 62.24 62.57 63.08 63.44 63.68 63.86 64.06 64.63 64.84 66.95 67.14 67.66 67.78
50.02 49.12 49.38 49.39 50.28 50.30 50.27 49.89 49.75 49.43 49.17 49.20 48.71 49.07 49.11 49.82 50.76 51.60 52.00 51.29 51.56 52.99 55.50 59.40 59.92 59.59 60.74 61.38 61.64 61.92 61.75 62.08 62.09 62.48 62.70 63.00 63.40 63.75 64.09 64.55 66.27 67.45 67.67
50.44 49.24 49.45 49.90 50.31 50.27 50.14 50.03 49.53 48.77 48.47 49.67 49.60 49.26 49.39 49.18 50.63 52.72 51.16 51.85 52.08 52.33 52.04 56.43 58.48 59.09 60.08 60.86 61.04 61.97 62.17 61.99 61.84 62.06 62.61 63.33 63.70 63.72 63.85 63.94 64.45 65.38 67.52
50.31 49.55 49.80 49.79 50.32 49.98 49.63 49.52 48.70 49.27 48.66 48.61 50.45 50.08 48.55 49.25 50.99 50.38 50.20 52.43 52.26 52.88 52.66 52.70 52.60 54.15 58.71 61.50 61.87 61.85 61.83 61.65 61.47 62.00 62.79 63.33 63.39 63.42 63.81 64.05 63.98 64.20 64.72
50.47 49.71 49.49 49.92 50.28 49.25 48.67 49.52 49.06 48.54 48.04 48.67 46.78 47.95 48.14 49.82 49.81 49.11 49.81 49.84 50.41 51.66 52.87 52.55 52.02 52.30 54.39 58.94 58.86 59.53 60.42 61.46 61.77 62.16 62.33 62.56 62.97 62.50 62.91 63.95 63.85 64.11 64.26
50.49 50.43 49.49 49.48 49.29 49.02 49.28 49.10 50.96 50.34 49.86 48.01 46.19 44.74 43.38 46.08 47.44 48.91 48.38 49.36 48.34 49.91 51.48 52.68 52.62 53.46 54.47 55.03 55.12 56.56 57.37 59.44 60.51 61.75 62.28 62.26 62.67 62.90 62.79 63.35 64.11 64.41 64.45
50.63 50.30 49.95 49.48 49.33 51.52 50.59 50.75 51.06 51.10 48.90 47.92 47.33 45.67 41.65 40.22 43.44 46.76 46.83 47.32 48.36 48.27 49.21 50.98 53.68 55.54 54.49 53.35 53.52 53.66 55.54 57.13 59.27 60.38 61.77 61.99 61.94 62.20 62.64 63.83 64.97 64.35 63.96
50.03 50.45 50.54 49.85 49.36 51.09 50.84 50.73 51.89 51.83 50.16 47.69 47.37 49.74 49.90 48.01 40.99 40.43 44.52 45.98 47.92 48.44 48.45 51.36 54.14 54.33 54.27 52.73 53.33 53.86 54.66 55.78 57.83 59.23 60.04 61.23 61.32 62.40 63.64 64.69 63.99 64.26 63.41
48.88 50.22 50.19 49.50 49.11 49.41 50.62 50.72 50.57 50.83 50.84 48.99 48.86 48.97 48.07 48.00 47.75 45.70 42.33 43.19 46.26 47.70 48.18 50.42 53.93 54.20 53.72 52.81 51.11 52.31 54.01 55.01 56.63 57.63 59.05 59.49 60.12 61.74 63.71 64.56 63.84 63.51 63.24
47.39 49.79 50.24 48.92 49.00 48.54 48.40 49.73 50.37 50.20 50.03 49.58 48.86 49.58 48.56 47.08 46.47 46.37 45.29 45.21 45.11 45.11 48.51 48.29 53.26 54.08 54.37 53.08 52.06 52.24 53.49 53.95 54.80 55.92 57.62 58.39 58.37 59.47 61.47 64.36 63.73 63.45 63.29
45.54 46.43 49.03 48.61 48.16 48.53 48.86 48.91 48.60 49.57 49.54 48.83 46.37 46.46 49.08 49.32 49.65 48.87 47.42 46.04 44.91 44.64 45.93 47.84 54.09 53.97 54.23 52.62 49.90 50.38 52.11 52.95 53.32 54.06 55.58 56.42 56.19 57.22 58.89 61.07 61.86 62.64 62.89
46.02 46.31 47.28 49.37 49.22 49.31 49.21 48.52 47.81 47.42 47.04 46.96 45.60 45.71 46.64 48.24 49.97 49.49 48.27 46.94 44.55 44.61 43.69 44.68 50.11 50.88 50.74 51.66 51.65 50.70 48.73 52.32 52.24 52.40 52.83 53.29 53.76 55.30 56.86 58.23 58.70 59.17 59.21
47.66 46.72 46.36 47.68 48.54 48.62 48.39 47.68 47.15 46.80 46.60 46.17 45.85 45.69 45.24 46.12 47.57 49.40 49.41 48.99 46.73 42.33 42.69 43.23 44.72 47.02 46.88 47.97 50.73 50.79 48.77 51.11 51.29 51.37 50.77 51.74 51.67 52.75 53.25 54.05 55.13 56.48 56.84
46.32 46.13 45.71 45.87 47.23 48.03 47.96 46.87 46.51 46.83 46.16 45.78 46.07 45.11 44.87 44.98 45.70 46.39 48.69 48.86 48.45 46.26 42.86 44.59 44.66 45.00 45.35 46.97 48.07 47.78 48.53 48.52 50.49 50.85 50.59 50.41 50.58 50.75 50.87 51.12 51.61 52.17 53.11
45.00 45.40 45.72 45.58 45.84 46.57 47.14 45.81 45.84 46.25 45.73 45.11 44.80 44.55 44.52 44.56 43.95 44.26 44.93 46.17 46.98 46.96 43.89 45.17 44.73 44.24 42.79 43.22 46.05 48.14 48.31 47.13 48.00 49.59 49.71 49.41 49.76 49.08 48.80 48.62 48.46 48.76 49.51
43.91 44.52 45.12 45.27 45.27 45.65 46.46 45.27 44.64 45.55 44.70 43.70 43.73 43.66 43.79 45.65 43.46 43.47 43.30 42.94 43.34 43.83 43.13 40.45 41.04 41.41 41.75 42.85 43.20 46.13 47.60 49.02 47.12 48.10 48.18 49.01 49.64 48.76 47.96 47.25 46.41 45.75 45.82
43.00 43.73 44.39 44.22 44.49 45.02 45.32 45.48 45.01 44.76 44.56 44.11 43.80 43.48 43.49 43.47 42.29 42.11 42.48 42.18 42.33 43.73 41.73 40.30 40.13 40.97 41.60 42.24 42.49 43.51 44.87 47.12 46.53 46.83 47.18 46.74 47.49 48.78 47.48 46.51 45.36 44.39 44.05
42.24 42.75 43.52 44.23 44.63 44.65 44.92 44.99 45.20 44.44 43.74 43.74 43.97 43.81 43.56 43.37 42.72 42.22 42.46 42.34 42.95 41.68 41.29 40.13 39.49 39.47 39.96 41.28 41.07 39.86 39.71 41.87 43.72 45.71 45.75 44.31 45.02 46.46 47.77 45.74 44.14 43.19 42.59
41.59 42.08 42.51 42.92 43.44 43.95 44.95 43.94 44.34 44.18 43.56 43.05 43.29 43.64 43.78 43.71 44.48 44.62 43.34 42.09 41.86 40.95 40.37 39.82 38.98 38.93 38.44 38.08 37.49 38.56 38.35 37.99 37.84 39.87 39.83 42.18 39.76 41.25 46.39 44.94 43.49 42.46 41.56
39.14 40.07 40.03 40.77 41.14 43.39 45.85 46.88 46.68 43.44 43.44 43.11 42.26 42.55 42.91 43.32 44.01 46.42 47.13 46.79 43.79 40.21 39.59 38.00 37.85 37.90 37.23 36.97 37.11 36.97 36.43 34.49 33.11 37.44 35.18 35.35 38.12 38.28 40.96 43.76 44.16 43.48 41.86
37.24 37.32 37.83 38.47 38.63 39.54 44.55 46.02 46.12 43.10 42.38 41.75 41.42 41.51 42.06 43.39 43.44 42.40 44.42 46.30 46.35 46.58 45.37 40.05 38.38 38.08 36.80 37.83 37.18 35.28 34.77 34.13 34.04 36.04 33.95 32.16 33.66 33.84 35.88 40.35 44.72 43.12 42.66
36.67 36.89 37.05 37.57 37.32 38.85 43.30 44.20 44.41 40.68 40.58 40.73 40.63 40.41 40.18 40.63 41.10 42.02 41.09 40.06 40.29 41.22 42.04 43.15 42.04 41.26 39.20 39.13 38.34 37.16 35.99 33.72 32.99 33.77 32.82 30.00 30.11 31.49 32.75 34.46 42.19 42.56 42.16
35.91 36.06 37.44 37.09 36.74 37.56 41.97 43.32 42.84 38.65 38.49 38.22 39.16 39.28 39.27 39.48 42.00 44.33 41.51 39.14 38.61 38.89 42.53 44.54 44.51 44.44 44.76 44.93 41.29 37.00 35.66 33.40 31.10 30.76 31.10 30.85 28.95 29.57 30.16 30.93 34.07 41.54 41.43
35.92 36.59 36.06 35.86 37.74 36.38 40.48 43.38 42.62 38.50 36.82 36.96 37.69 38.69 41.36 41.56 43.93 44.76 40.64 38.23 36.90 37.48 37.70 37.82 37.00 38.33 43.35 42.54 44.94 38.19 37.89 34.93 33.01 29.77 29.27 28.83 26.45 27.56 24.70 28.17 29.85 32.87 35.08